Regional Weather Roundup
Issued by NWS Charleston, SC

Current Version | Previous Version | Graphics & Text | Print | Product List | Glossary On
Versions: 1 2 3 4 5 6 7 8 9 10 11 12 13 14 15 16 17 18 19 20 21 22 23 24 25 26 27 28 29 30 31 32 33 34 35 36 37 38 39 40 41 42 43 44 45 46 47 48 49 50
000 ASUS42 KCHS 250911 RWRCHS REGIONAL WEATHER ROUNDUP NATIONAL WEATHER SERVICE CHARLESTON SC 400 AM EST SAT FEB 25 2017 NOTE: "FAIR" INDICATES FEW OR NO CLOUDS BELOW 12,000 FEET WITH NO SIGNIFICANT WEATHER AND/OR OBSTRUCTIONS TO VISIBILITY. NOT ALL STATIONS ARE QUALITY CONTROLLED. USE DATA WITH CAUTION... ESPECIALLY DEWPOINT OBSERVATIONS. SCZ027-030-031-034>040-042>050-251000- ...SOUTHEAST SOUTH CAROLINA... CITY SKY/WX TMP DP RH WIND PRES REMARKS N CHARLESTON PTCLDY 57 56 96 S3 29.79F FOG WATERFRONT PRK N/A 61 61 100 CALM 29.78F MOUNT PLEASANT PTSUNNY 54 54 100 CALM 29.79S FOG JOHNS ISLAND FOG 55 55 100 CALM 29.79S VSB<1/4 PINOPOLIS N/A 61 61 100 VRB2 29.70F MONCKS CORNER FOG 52 50 93 CALM 29.78F VSB 1/2 SUMMERVILLE FAIR 54 52 94 CALM 29.80F BEAUFORT MCAS FOG 57 57 100 CALM 29.79F VSB 3/4 BEAUFORT ARPT FAIR 55 55 100 CALM 29.79S FOG HILTON HEAD IS CLEAR 64 64 100 S6 29.80S WALTERBORO FOG 55 55 100 CALM 29.80S VSB 3/4 ALLENDALE CLOUDY 59 59 100 CALM 29.79S ...SOUTHERN MIDLANDS AND PEE DEE... CITY SKY/WX TMP DP RH WIND PRES REMARKS GEORGETOWN FOG 50 50 100 CALM 29.80F VSB 1/4 KINGSTREE CLOUDY 50 50 100 CALM 29.78F FOG ORANGEBURG CLEAR 57 57 100 CALM 29.79F FOG BARNWELL PTSUNNY 61 61 100 CALM 29.79F AIKEN FAIR 59 57 94 S7 29.81F MANNING FAIR 54 52 94 MISG 29.78S COLUMBIA PTCLDY 61 58 90 SW5 29.77F SUMTER CLEAR 57 56 96 S5 29.75F FLORENCE CLEAR 58 58 100 SW5 29.78F MYRTLE BEACH CLEAR 54 54 100 CALM 29.79F FOG N MYRTLE BEACH CLEAR 53 53 100 CALM 29.78F $$ GAZ063-065-086>088-099>101-113>116-118-119-134>141-150-251000- ...SOUTHEAST GEORGIA... CITY SKY/WX TMP DP RH WIND PRES REMARKS SAVANNAH ARPT FOG 62 60 93 S5 29.79F VSB 1 HUNTER AAF FOG 63 63 100 CALM 29.77F VSB 1/2 FORT STEWART FOG 60 59 98 CALM 29.77F VSB 3/4 STATESBORO MOCLDY 61 32 33 CALM 29.80S SYLVANIA CLOUDY N/A N/A N/A CALM 29.81S FOG CLAXTON PTSUNNY N/A N/A N/A CALM 29.81R ...CSRA...CENTRAL AND FAR SOUTHEAST GEORGIA... CITY SKY/WX TMP DP RH WIND PRES REMARKS THOMSON PTCLDY 64 62 93 SW3 29.83R AUGUSTA-BUSH MOCLDY 62 59 90 CALM 29.78F AUGUSTA-DANIEL PTCLDY 62 57 83 S6 29.79F SWAINSBORO FAIR 61 61 100 CALM 29.81S VIDALIA MOCLDY 63 63 100 SW5 29.80S EASTMAN PTSUNNY 64 64 100 CALM 29.84S HAZLEHURST FAIR 64 64 100 SW7 29.80S ALMA PTCLDY 62 62 100 CALM 29.81S WAYCROSS CLEAR 63 63 100 W5 29.81S FOG JESUP FOG 63 59 88 CALM 29.82R VSB 1/4 BAXLEY FOG 61 61 100 CALM 29.81S VSB 3/4 BRUNSWICK FOG 64 64 100 S7 29.82S VSB 3/4 SAINT SIMONS FOG 63 63 100 SW8 29.80S VSB 1/4 $$ SCZ027-028-034-036>038-045-046-048>050-GAZ119-141-251000- ...LAKE AND SUPPLEMENTAL COASTAL OBSERVATIONS... STATION/POSITION TIME TEMP WIND PRES WAVE SWELL AIR SEA DIR/SP/G HT/PER HT/PER/DIR (UTC) (F) (DEG/KT/KT) (MB) (FT/S) (FT/S/D) WINYAH BAY NOT AVBL LAKE MURRAY 0820 62 190/ 5/ 7 1007.8 ACE BASIN NERRS 0745 57 CALM 1009.0 FORT PULASKI 0848 63 62 200/ 3/ 5 1009.1F SAPELO ISLAND 0800 63 CALM 1010.0 $$ ANZ835-935-AMZ111-154-330-350-352-354-370-450-454-472-251000- ...C-MAN AND BUOY OBSERVATIONS... STATION/POSITION TIME TEMP WIND PRES WAVE SWELL AIR SEA DIR/SP/G HT/PER HT/PER/DIR (UTC) (F) (DEG/KT/KT) (MB) (FT/S) (FT/S/D) BUOY 41004 0750 69 71 220/ 4/ 6 1009.1 7/11 7/120/11 BUOY 41008 0750 64 62 140/ 8/ 8 1008.9 4/ 9 5/ 70/ 9 FOLLY BEACH CMAN 0800 62 210/ 4/ 4 1009.5F CAPERS NEARSHORE 0808 61 61 200/ 2/ 4 1008.8F FRIPP NEARSHORE 0808 62 61 160/ 6/ 8 1008.4F STATION/POSITION TIME TEMP WIND PRES WAVE SWELL AIR SEA DIR/SP/G HT/PER HT/PER/DIR (UTC) (F) (DEG/KT/KT) (MB) (FT/S) (FT/S/D) 5E ST. MARYS GA 0830 64 N/A 4/ 9 2/100/11 FRYING PAN BUOY 0850 69 72 300/ 4/ 8 1008.3F 7/10 7/110/10 BUOY 41025 0850 68 76 220/ 6/ 8 1008.2F 8/11 8/120/11 CAPE LOOKOUT NC 0800 63 320/ 5/ 6 1008.6R BUOY 41002 0850 69 70 210/ 10/ 12 1006.3F 10/10 10/100/10 BUOY 41010 NOT AVBL ST AUGUSTINE FL 0900 62 67 230/ 4/ 5 1010.4F $$

USA.gov is the U.S. government's official web portal to all federal, state and local government web resources and services.